Regional Weather Roundup
Issued by NWS

Home | Current Version | Previous Version | Text Only | Print | Product List | Glossary On
Versions: 1 2 3 4 5 6 7 8 9 10 11 12 13 14 15 16 17 18 19 20 21 22 23 24 25 26 27 28 29 30 31 32 33 34 35 36 37 38 39 40 41 42 43 44 45 46 47 48 49 50
000
ASUS43 KLOT 022012
RWRIL

ILLINOIS REGIONAL WEATHER ROUNDUP
NATIONAL WEATHER SERVICE CHICAGO/ROMEOVILLE IL
200 PM CST FRI DEC 02 2016

NOTE: "FAIR" INDICATES FEW OR NO CLOUDS BELOW 12,000 FEET WITH NO
SIGNIFICANT WEATHER AND/OR OBSTRUCTIONS TO VISIBILITY.

* THESE STATIONS ARE NOT UNDER NWS QUALITY CONTROL. THEY ALSO MAY NOT
  REPORT WEATHER SUCH AS PRECIPITATION OR FOG.

ILZ001-002-007-009-015-016-024-022100-
NORTHWEST ILLINOIS

CITY           SKY/WX    TMP DP  RH WIND       PRES   REMARKS
MOLINE         CLOUDY    40  27  59 NW12      30.23R
STERLING*      CLOUDY    39  29  67 NW13      30.22R WCI  31
SAVANNA*       CLOUDY    38  26  63 NW8       30.23R WCI  32
$$

ILZ003-004-008-010-011-017-018-022100-
NORTH CENTRAL ILLINOIS

CITY           SKY/WX    TMP DP  RH WIND       PRES   REMARKS
ROCKFORD       CLOUDY    37  28  70 NW10      30.23R WCI  30
FREEPORT*      CLOUDY    35  26  71 NW10      30.23R WCI  27
ROCHELLE*      CLOUDY    38  30  74 NW10      30.21S WCI  30
DE KALB*       CLOUDY    37  31  81 NW7       30.20S WCI  31
$$

ILZ005-006-012>014-019>023-022100-
NORTHEAST ILLINOIS

CITY           SKY/WX    TMP DP  RH WIND       PRES   REMARKS
CHICAGO-OHARE  CLOUDY    38  27  64 NW12      30.19R WCI  30
CHICAGO-MIDWAY CLOUDY    41  29  62 W10       30.19R
AURORA         CLOUDY    39  32  76 NW9       30.20S WCI  33
LANSING*       CLOUDY    37  35  92 W7        30.21R WCI  32
JOLIET*        CLOUDY    39  33  78 NW3       30.21R
WAUKEGAN       CLOUDY    36  24  62 NW7       30.19R WCI  30
DUPAGE AIRPORT CLOUDY    37  30  75 NW9       30.19R WCI  30
KANKAKEE*      CLOUDY    40  33  77 W10       30.21S
WHEELING       CLOUDY    38  26  62 NW6       30.21R WCI  33
MORRIS*        DRIZZLE   37  34  88 NW6       30.21R WCI  32
ROMEOVILLE*    CLOUDY    37  35  92 NW7       30.21R WCI  32
NORTHERLY ISL    N/A     40  28  63 NW9         N/A
$$

LMZ740>746-022100-
SOUTHERN LAKE MICHIGAN

STATION/POSITION SKY/WX   TEMP    WIND        PRES    VSBY  WAVE
                          AIR SEA DIR/SP/G                  HT/PER
                          (F)     (DEG/KT/KT) (MB)    (MI)  (FT/S)
SOUTHERN BUOY              37 49  300/ 14/ 17 1021.3          3/ 6
HARRISON CRIB              39     340/ 12/ 14   N/A
BURNHAM HARBOR             40     280/  7/ 13   N/A
CALUMET HARBOR             40     250/  5/  7 1021.9R
BURNS HARBOR               41     300/ 16/ 20 1021.7
MICHIGAN CITY              39     300/ 14/ 15   N/A
$$

ILZ025>027-034>036-040-047-049-050-058-095>099-022100-
WEST-CENTRAL ILLINOIS

CITY           SKY/WX    TMP DP  RH WIND       PRES   REMARKS
QUINCY         MOSUNNY   45  31  58 NW9       30.26R
GALESBURG*     CLOUDY    40  32  71 NW12      30.24R
MACOMB*        CLOUDY    43  32  64 NW12      30.27R
JACKSONVILLE*  CLOUDY    42  31  64 NW8       30.26S
PITTSFIELD*    MOSUNNY   45  32  60 CALM      30.27S
$$

ILZ028>032-037-038-041>044-048-051>054-059>061-022100-
CENTRAL ILLINOIS

CITY           SKY/WX    TMP DP  RH WIND       PRES   REMARKS
PONTIAC        CLOUDY    41  36  82 W8        30.23R
BLOOMINGTON    CLOUDY    40  31  70 W9        30.23R
DECATUR        CLOUDY    41  32  70 W9        30.25R
PEORIA         CLOUDY    42  31  64 NW12      30.24R
LACON*         CLOUDY    38  34  83 NW7       30.23R WCI  33
LINCOLN*       CLOUDY    43  33  69 W5        30.25R
SPRINGFIELD    CLOUDY    43  32  65 NW9       30.26R
TAYLORVILLE    CLOUDY    41  32  70 W8        30.27R
$$

ILZ033-039-045-046-055>057-062-063-022100-
EAST-CENTRAL ILLINOIS

CITY           SKY/WX    TMP DP  RH WIND       PRES   REMARKS
CHAMPAIGN      CLOUDY    41  32  70 W10       30.23S
RANTOUL*       CLOUDY    42  36  78 W9        30.22S
MATTOON        CLOUDY    40  30  67 W10       30.25R
PARIS*         CLOUDY    40  33  77 W13       30.24S
$$

ILZ079-100>102-022100-
SOUTHWEST ILLINOIS

CITY           SKY/WX    TMP DP  RH WIND       PRES   REMARKS
ALTON          MOSUNNY   45  32  61 NW8       30.28R
BELLEVILLE     SUNNY     49  29  47 W10       30.26S
CAHOKIA*       SUNNY     48  28  46 NW6       30.27F
SPARTA*        SUNNY     47  30  50 W6        30.28S
$$

ILZ064>066-069>071-074>076-080>082-084>086-088>090-092>094-022100-
SOUTH-CENTRAL ILLINOIS

CITY           SKY/WX    TMP DP  RH WIND       PRES   REMARKS
CARBONDALE     SUNNY     48  32  53 CALM      30.27F
CAIRO*           N/A     52  31  44 CALM      30.25F HAZE
EFFINGHAM*     CLOUDY    43  33  69 W9        30.28R
MARION         SUNNY     48  32  53 NW5       30.27F
CENTRALIA*     SUNNY     46  33  60 W7        30.26F
SALEM*         MOSUNNY   45  31  59 W9        30.26S
METROPOLIS*    SUNNY     51  30  44 N3        30.26F
$$

ILZ067-068-072-073-078-083-087-091-022100-
SOUTHEAST ILLINOIS

CITY           SKY/WX    TMP DP  RH WIND       PRES   REMARKS
LAWRENCEVILLE  CLOUDY    43  30  60 W15       30.27R
FLORA*         MOSUNNY   44  32  61 NW6       30.27S
FAIRFIELD*     MOSUNNY   46  32  57 NW5       30.26S
HARRISBURG*    SUNNY     48  32  54 N6        30.27S
ROBINSON*      CLOUDY    41  31  67 W13       30.27R
CARMI*         SUNNY     46  33  61 W8        30.27S
$$

ABBREVIATIONS USED IN REMARKS
   TC - TEMPERATURE IN CELSIUS
  WCI - WIND CHILL INDEX
   HX - HEAT INDEX
  VSB - VISIBILITY
$$





USA.gov is the U.S. government's official web portal to all federal, state and local government web resources and services.